User: anonymous   Login
Location: Unspecified
(0.0000°N, 0.0000°E)
Time: 22:00:08
(UTC+00:00)
Language:

PAYLOAD C - Orbit

View from above orbital plane
View from above orbital plane
View from above satellite
View from above satellite

Ground track
Ground track

The orbit data is extracted from the following two-line orbital elements,

1 27842U 03031C   17082.90251734 +.00000056 +00000-0 +44807-4 0  9997
2 27842 098.6845 091.9990 0008804 201.4096 158.6715 14.22091300712324
Epoch (UTC): 23 March 2017 21:39:37
Eccentricity: 0.0008804
inclination: 98.6845°
perigee height: 812 km
apogee height: 824 km
right ascension of ascending node: 91.9990°
argument of perigee: 201.4096°
revolutions per day: 14.22091300
mean anomaly at epoch: 158.6715°
orbit number at epoch: 71232

The dashed part of the orbit path shows where the satellite is in the earth's shadow,  

DLR